Wind_Speed
20 20 21 21 22 22 22 22 23 23 22 22 22 22 23 22 22 23 24 24 24 24 23 23 23 23 23 24 24 24 24 24 25 25 26 26 26 25
23 23 23 23 23 24 24 25 25 24 24 24 24 24 24 24 23 24 24 25 25 25 25 25 25 25 25 25 25 25 25 25 25 25 25 26 26 26
25 25 25 26 26 26 26 26 26 26 26 26 25 26 26 25 25 25 25 26 26 25 25 26 26 26 27 27 26 26 26 26 26 26 26 26 27 27
26 27 27 27 27 27 28 28 28 28 27 27 26 26 26 26 27 27 27 27 26 26 27 27 28 28 28 28 28 28 27 27 27 27 28 27 27 27
28 28 28 27 27 28 28 28 28 28 28 27 27 27 27 27 27 27 28 28 27 28 28 29 29 30 29 29 29 30 30 30 29 28 28 28 28 28
28 28 27 28 28 28 28 28 28 28 28 28 27 27 28 28 29 29 29 29 29 29 29 29 30 30 30 30 30 30 30 31 30 30 29 29 29 29
29 29 29 29 30 30 30 30 29 29 29 29 29 29 30 30 30 30 30 30 30 30 30 30 30 30 30 30 30 30 30 30 30 30 30 30 30 30
30 30 31 31 31 31 31 31 31 31 31 31 31 31 31 31 31 31 30 31 30 30 30 30 30 30 30 31 30 30 29 29 29 29 29 30 30 31
30 31 32 31 32 31 32 31 32 32 32 33 32 32 32 32 31 31 31 31 31 30 30 30 30 30 30 30 30 30 30 30 30 30 30 29 29 29
31 31 31 31 31 31 31 32 32 33 33 33 33 33 33 32 32 31 31 31 31 30 31 31 30 30 30 30 29 29 29 29 30 30 30 30 29 29
31 31 31 31 31 31 31 32 32 33 33 32 32 32 32 32 31 31 30 30 30 30 30 30 30 30 29 29 29 29 29 30 30 30 30 30 30 30
31 31 31 31 31 31 32 32 31 31 31 31 32 32 31 31 31 31 31 31 30 30 30 30 30 30 29 29 29 29 29 29 29 29 29 30 30 30
31 31 32 32 31 31 32 32 31 31 31 31 31 31 31 30 30 31 31 31 31 31 31 30 30 29 29 28 28 28 28 27 27 28 28 28 28 29
33 33 33 32 32 32 32 32 32 31 31 31 31 31 31 30 30 31 31 31 31 31 30 30 30 29 29 28 28 27 27 26 26 26 27 27 27 28
34 33 33 32 32 33 33 33 32 32 31 31 31 31 31 30 30 30 30 30 30 30 30 29 29 29 29 28 27 27 26 25 25 26 26 26 26 26
34 34 33 33 33 33 33 33 33 32 32 32 32 32 31 30 30 30 29 28 28 28 28 28 28 28 28 28 27 26 25 25 25 25 25 26 26 26
33 33 33 33 34 33 33 33 32 32 33 33 32 32 30 29 29 28 27 26 26 26 26 26 26 27 27 27 27 26 25 25 25 25 25 25 25 25
33 33 33 33 33 33 33 33 33 33 33 32 31 30 30 29 29 28 27 26 25 25 25 25 25 26 26 26 26 26 25 25 25 25 25 26 26 26
33 33 33 32 32 32 32 32 32 32 31 31 30 29 29 29 28 27 27 26 26 25 25 25 25 25 25 25 25 25 25 25 25 25 25 25 25 25
32 32 32 31 31 32 32 32 31 30 30 30 29 28 28 27 27 27 27 26 26 26 26 25 25 25 25 25 23 23 24 25 25 25 25 25 25 25
31 31 31 31 32 31 31 30 30 29 29 29 29 28 27 27 26 26 26 25 25 26 25 24 25 25 24 23 22 22 23 24 24 24 24 24 24 24
30 30 30 29 29 28 29 29 29 29 28 28 29 28 28 27 26 25 25 24 24 24 24 24 24 23 22 22 21 21 22 22 22 23 23 24 23 23
29 29 29 29 28 28 29 30 29 28 28 28 28 27 26 25 25 24 23 23 23 23 22 22 22 22 21 21 21 21 21 21 21 21 21 21 22 22
Wind_Direction
304 304 304 303 303 301 300 299 297 296 291 288 287 288 286 284 280 280 279 279 278 278 276 275 275 274 273 273 273 273 274 272 271 271 271 269 268 267
304 303 302 301 301 300 299 298 298 297 293 289 286 286 287 283 280 281 280 279 279 279 276 275 275 275 275 273 272 272 272 271 270 270 270 269 267 267
300 300 300 299 299 298 297 295 295 294 291 290 288 286 284 282 280 279 279 278 278 277 276 275 275 275 274 273 273 274 273 272 270 270 271 269 269 267
298 298 298 297 297 296 296 294 293 291 290 289 287 286 283 281 281 280 278 277 276 276 277 276 276 275 274 273 272 272 273 272 270 270 269 269 268 267
296 296 297 296 296 295 294 293 291 290 289 288 286 285 285 284 283 281 280 279 278 278 277 277 276 274 273 273 273 272 272 271 271 271 270 269 268 266
295 297 296 296 295 294 293 292 290 289 289 288 286 285 285 284 283 281 278 278 277 278 278 277 276 275 274 274 273 273 273 272 272 272 271 269 269 267
295 296 297 296 295 293 293 291 289 288 288 288 287 285 284 283 282 281 280 278 277 277 277 276 276 275 276 276 275 274 274 273 272 271 270 269 268 268
295 297 297 297 296 294 293 291 289 288 287 287 286 285 284 284 282 280 280 279 277 276 277 276 275 274 274 275 275 274 274 273 272 271 270 269 268 268
296 298 299 298 298 297 295 292 290 289 288 286 285 286 284 283 282 281 280 279 277 275 274 275 275 275 275 274 274 273 273 272 271 270 270 270 269 269
298 300 301 300 300 300 298 295 293 292 290 287 285 285 284 283 282 280 279 278 277 276 275 275 275 275 275 274 274 273 272 271 270 269 269 270 271 271
298 299 300 300 300 301 299 298 296 293 291 289 288 286 284 282 281 281 280 278 277 276 275 275 276 275 274 273 273 273 271 270 270 270 269 270 270 270
297 298 299 299 300 300 300 299 298 296 293 290 289 288 285 283 282 280 280 279 277 275 274 274 274 274 273 272 273 274 272 271 271 271 271 271 271 270
296 297 298 299 299 298 298 298 297 296 295 292 290 289 286 284 284 283 282 280 277 276 274 273 273 273 272 271 271 273 272 272 272 273 273 272 272 271
296 296 297 298 299 298 296 297 296 296 296 294 292 290 287 285 284 284 282 280 277 276 274 271 271 271 271 271 271 272 273 272 272 273 274 272 271 270
294 295 296 296 297 297 296 295 294 294 294 293 292 292 289 286 285 285 283 280 278 276 274 272 271 270 269 269 270 270 272 273 273 274 274 272 272 272
294 294 294 294 295 296 295 293 292 292 292 293 292 291 289 287 286 285 283 280 278 277 275 272 270 268 267 267 268 269 270 272 273 275 275 274 273 273
293 293 293 293 293 293 293 292 291 291 291 291 291 291 291 289 286 284 283 280 278 276 274 272 269 267 266 266 267 267 269 272 273 273 274 275 275 274
293 293 293 293 293 293 293 294 294 293 292 291 291 290 290 288 286 283 281 280 277 274 273 270 268 266 265 265 267 267 268 271 272 272 274 276 275 275
292 292 293 294 294 293 293 294 294 293 292 290 290 289 288 287 285 282 280 279 277 275 272 269 268 267 266 265 267 267 268 269 270 272 274 276 275 275
291 291 293 294 294 294 293 294 294 294 292 290 290 289 288 287 285 282 280 279 276 274 272 269 268 268 268 268 266 267 269 270 270 272 273 274 275 275
293 292 293 294 294 294 294 294 294 294 292 290 289 288 288 286 283 282 280 278 276 272 269 267 267 268 270 269 267 267 269 270 271 272 274 274 274 274
293 293 294 295 295 294 293 294 293 292 292 291 290 288 286 284 282 281 279 278 277 272 269 268 268 266 268 267 267 268 270 271 271 274 275 275 275 275
292 292 294 294 294 294 294 293 291 290 290 289 289 287 286 283 282 281 279 278 276 271 269 269 266 263 264 267 267 269 270 270 272 275 275 275 276 277
Height
5852 5851 5850 5848 5847 5845 5844 5843 5842 5840 5840 5839 5838 5837 5836 5834 5834 5834 5834 5834 5833 5833 5833 5833 5833 5833 5833 5833 5833 5833 5833 5833 5833 5833 5833 5834 5834 5835
5847 5846 5844 5843 5841 5839 5838 5837 5835 5834 5833 5832 5831 5830 5829 5829 5828 5827 5827 5826 5826 5826 5826 5826 5826 5826 5826 5825 5825 5825 5825 5825 5826 5825 5826 5826 5827 5827
5842 5840 5839 5837 5835 5833 5832 5830 5829 5827 5826 5826 5824 5823 5822 5821 5820 5820 5819 5819 5819 5819 5819 5819 5818 5818 5818 5818 5818 5818 5818 5818 5818 5818 5819 5819 5820 5820
5836 5834 5832 5830 5828 5827 5825 5823 5822 5820 5819 5818 5817 5816 5815 5814 5813 5812 5812 5811 5811 5811 5811 5811 5811 5810 5810 5810 5809 5810 5810 5810 5810 5810 5811 5811 5812 5812
5829 5827 5825 5823 5822 5820 5818 5816 5814 5813 5811 5810 5810 5808 5807 5806 5805 5804 5804 5803 5803 5803 5802 5802 5802 5801 5801 5801 5801 5801 5801 5801 5802 5802 5802 5803 5803 5804
5822 5819 5817 5816 5814 5812 5810 5808 5807 5805 5804 5802 5801 5800 5799 5798 5797 5796 5796 5795 5795 5794 5794 5793 5793 5792 5792 5793 5793 5792 5792 5792 5793 5793 5793 5794 5794 5795
5815 5813 5811 5809 5807 5805 5802 5800 5799 5797 5795 5794 5793 5792 5791 5790 5788 5787 5787 5786 5785 5785 5785 5784 5784 5784 5783 5783 5783 5783 5783 5783 5783 5783 5784 5784 5785 5786
5807 5806 5803 5801 5799 5796 5793 5792 5790 5788 5787 5785 5784 5783 5782 5780 5779 5778 5777 5777 5776 5776 5775 5775 5775 5775 5774 5774 5774 5774 5774 5774 5774 5774 5774 5775 5775 5776
5800 5798 5796 5793 5790 5788 5785 5783 5781 5779 5777 5776 5775 5773 5772 5771 5770 5769 5768 5767 5767 5766 5765 5765 5765 5765 5765 5764 5764 5764 5764 5764 5764 5764 5765 5765 5766 5766
5792 5790 5788 5785 5782 5779 5776 5774 5772 5770 5767 5766 5765 5763 5762 5760 5759 5759 5758 5757 5757 5756 5756 5755 5755 5755 5755 5755 5755 5754 5754 5755 5755 5755 5755 5756 5756 5757
5784 5782 5779 5776 5773 5770 5768 5766 5763 5760 5758 5756 5755 5753 5752 5751 5749 5748 5748 5747 5747 5747 5746 5746 5745 5745 5745 5745 5745 5745 5745 5745 5745 5745 5746 5746 5747 5747
5776 5773 5771 5768 5765 5762 5759 5757 5754 5752 5749 5748 5746 5744 5742 5741 5740 5738 5738 5737 5737 5737 5736 5736 5735 5735 5736 5736 5736 5736 5736 5736 5736 5736 5736 5737 5737 5737
5767 5765 5762 5759 5756 5753 5750 5748 5745 5743 5741 5739 5737 5735 5733 5732 5730 5729 5727 5726 5726 5726 5726 5725 5725 5725 5726 5727 5727 5727 5727 5727 5727 5727 5727 5727 5728 5728
5758 5755 5753 5750 5747 5744 5742 5739 5737 5734 5732 5730 5728 5726 5724 5722 5720 5719 5717 5716 5716 5715 5715 5715 5715 5716 5716 5717 5718 5718 5718 5718 5718 5718 5718 5718 5718 5718
5748 5745 5743 5740 5738 5735 5732 5730 5727 5725 5723 5721 5719 5716 5714 5712 5710 5709 5708 5707 5706 5705 5705 5705 5705 5706 5707 5708 5708 5709 5709 5710 5710 5710 5710 5710 5710 5710
5738 5735 5733 5731 5728 5726 5723 5720 5718 5716 5714 5711 5709 5707 5704 5702 5701 5700 5698 5697 5697 5696 5696 5696 5696 5697 5697 5698 5699 5700 5701 5701 5701 5701 5701 5701 5701 5701
5728 5725 5723 5721 5719 5716 5714 5711 5709 5706 5704 5702 5699 5697 5695 5693 5692 5690 5689 5688 5687 5687 5687 5687 5687 5687 5688 5689 5690 5691 5692 5692 5693 5693 5693 5693 5693 5693
5717 5715 5713 5711 5709 5706 5704 5701 5699 5696 5694 5692 5690 5687 5685 5684 5682 5681 5680 5679 5678 5678 5679 5679 5679 5679 5680 5681 5682 5683 5683 5684 5685 5685 5685 5685 5685 5685
5707 5705 5703 5701 5699 5697 5694 5692 5690 5687 5684 5682 5680 5678 5676 5675 5673 5672 5671 5670 5670 5670 5670 5670 5671 5671 5672 5673 5674 5674 5675 5676 5676 5677 5677 5677 5677 5677
5697 5696 5693 5691 5689 5687 5685 5682 5680 5677 5675 5673 5671 5669 5667 5666 5664 5663 5662 5662 5662 5662 5662 5662 5663 5663 5664 5665 5666 5666 5667 5667 5668 5668 5668 5668 5668 5668
5687 5686 5684 5682 5680 5678 5675 5673 5671 5668 5666 5664 5662 5661 5659 5657 5656 5655 5654 5654 5653 5653 5653 5654 5655 5656 5656 5657 5658 5659 5659 5659 5660 5660 5660 5660 5660 5660
5678 5676 5674 5672 5670 5668 5666 5664 5662 5660 5658 5655 5654 5652 5650 5649 5647 5646 5645 5645 5645 5645 5646 5647 5647 5648 5649 5650 5651 5651 5652 5652 5652 5652 5652 5652 5652 5652
5669 5667 5665 5663 5661 5660 5657 5655 5653 5651 5649 5647 5645 5643 5642 5640 5639 5638 5638 5638 5637 5637 5638 5639 5640 5641 5642 5643 5644 5644 5644 5645 5645 5645 5645 5645 5645 5645